Regional Weather Roundup
Issued by NWS

Home | Current Version | Previous Version | Text Only | Print | Product List | Glossary Off
Versions: 1 2 3 4 5 6 7 8 9 10 11 12 13 14 15 16 17 18 19 20 21 22 23 24 25 26 27 28 29 30 31 32 33 34 35 36 37 38 39 40 41 42 43 44 45 46 47 48 49 50

000
ASUS43 KMKX 231510
RWRWI

WISCONSIN REGIONAL WEATHER ROUNDUP
NATIONAL WEATHER SERVICE MILWAUKEE/SULLIVAN WI
900 AM CST MON JAN 23 2017

NOTE: "FAIR" INDICATES FEW OR NO CLOUDS BELOW 12,000 FEET WITH NO
SIGNIFICANT WEATHER AND/OR OBSTRUCTIONS TO VISIBILITY.

WIZ001-002-006>008-014>016-023>028-231600-
NORTHWEST WISCONSIN

CITY           SKY/WX    TMP DP  RH WIND       PRES   REMARKS
SUPERIOR ARPT  CLOUDY    35  35 100 CALM      29.78S
ASHLAND        CLOUDY    35  33  92 SW5       29.78R WCI  31
HAYWARD        FOG       35  34  96 W3        29.77R VSB 1/2
SIREN          CLOUDY    33  33 100 W3        29.80R FOG
CUMBERLAND     FOG       32  32 100 W3        29.79R VSB 1/2
RICE LAKE      FOG       33  33 100 CALM      29.81R VSB 1/4
CHETEK         FOG       33  33 100 CALM      29.80R VSB 3/4
LADYSMITH      FOG       35  34  99 SW3       29.79R VSB 1/4
EAU CLAIRE     SNOW      33  33 100 SW5       29.81R VSB 1/2 WCI  29
MENOMONIE        N/A    N/A N/A N/A MISG        N/A
NEW RICHMOND   LGT SNOW  33  33 100 W6        29.81R WCI  27
OSCEOLA        LGT SNOW  33  33 100 CALM      29.84R
$$

WIZ003>005-009-010-017-018-231600-
NORTH CENTRAL WISCONSIN

CITY           SKY/WX    TMP DP  RH WIND       PRES   REMARKS
MANITOWISH WTR FOG       32  32 100 S3        29.75R VSB<1/4
ARBOR VITAE    CLOUDY    34  33  97 SE3       29.76R FOG
WOODRUFF       CLOUDY    34  33  97 SE3       29.76R FOG
RHINELANDER    CLOUDY    33  33 100 W3        29.76R
EAGLE RIVER    FOG       32  32 100 CALM      29.75R VSB 3/4
LAND O LAKES   CLOUDY    33  33 100 CALM      29.76R
PHILLIPS       FOG       32  32 100 S3        29.75S VSB 1/4
TOMAHAWK       CLOUDY    32  32  99 CALM      29.77S FOG
MEDFORD        FOG       32  32  99 CALM      29.77R VSB<1/4
MERRILL        CLOUDY    33  33 100 CALM        N/A
$$

WIZ029-030-035-036-043>047-231600-
CENTRAL WISCONSIN

CITY           SKY/WX    TMP DP  RH WIND       PRES   REMARKS
WAUSAU         CLOUDY    33  33 100 NW5       29.77R WCI  29
MOSINEE        CLOUDY    34  34 100 W5        29.78R WCI  30
MARSHFIELD     FOG       33  32  96 W5        29.77S VSB<1/4 WCI  29
STEVENS POINT  CLOUDY    32  32 100 W3        29.79R
WAUPACA        CLOUDY    37  36  96 CALM      29.78S
WAUTOMA        CLOUDY    35  34  96 W5        29.80R WCI  31
WISC RAPIDS    FOG       34  34 100 CALM      29.80R VSB 1/4
CAMP DOUGLAS   CLOUDY    36  36 100 NW6       29.80R FOG     WCI  31
$$

WIZ011>013-019>022-031-037>040-048>050-231600-
NORTHEAST WISCONSIN

CITY           SKY/WX    TMP DP  RH WIND       PRES   REMARKS
ANTIGO         CLOUDY    33  32  99 NW5       29.76R WCI  28
SHAWANO        CLOUDY    37  35  92 CALM      29.77S
OCONTO         CLOUDY    35  34  96 CALM      29.76S
STURGEON BAY   CLOUDY    36  36 100 N3        29.77R
GREEN BAY      CLOUDY    38  36  92 CALM      29.77R
MANITOWOC      FOG       37  36  96 MISG      29.77S VSB 3/4
APPLETON       CLOUDY    36  36 100 NW6       29.76R WCI  31
CLINTONVILLE   CLOUDY    34  34 100 W3        29.78R
OSHKOSH        FOG       35  34  96 W6        29.77R VSB 1/4 WCI  30
$$

WIZ032>034-041-042-053>061-231600-
SOUTHWEST WISCONSIN

CITY           SKY/WX    TMP DP  RH WIND       PRES   REMARKS
LA CROSSE      CLOUDY    37  34  89 CALM      29.83R FOG
SPARTA         FOG       33  33 100 CALM      29.83R VSB 1
VIROQUA        CLOUDY    33  33 100 CALM      29.81R VSB 1
BOSCOBEL       CLOUDY    38  34  85 CALM      29.83R
PRAIRIE DU CHI LGT RAIN  35  33  92 W5        29.83S WCI  30
PLATTEVILLE    CLOUDY    35  35 100 NW6       29.81S WCI  30
$$

WIZ056-057-062-063-064-067-068-231600-
SOUTH CENTRAL WISCONSIN

CITY           SKY/WX    TMP DP  RH WIND       PRES   REMARKS
REEDSBURG      CLOUDY    35  35 100 NW3       29.80R FOG
BARABOO/DELLS  FOG       35  35  99 CALM      29.80R VSB 1/2
LONE ROCK      CLOUDY    37  35  92 W5        29.82S FOG     WCI  33
MINERAL POINT  FOG       36  36 100 NW6       29.80R VSB 1/2 WCI  31
MADISON        CLOUDY    36  34  92 NW7       29.80R WCI  30
MIDDLETON      CLOUDY    37  37 100 NW7       29.80S WCI  32
WATERTOWN      CLOUDY    35  35 100 NW9       29.78R FOG     WCI  28
MONROE         CLOUDY    36  36 100 NW8       29.78S FOG     WCI  29
JANESVILLE     CLOUDY    37  37 100 NW8       29.78R WCI  31
$$

WIZ051-052-058>065-066-070>072-231600-
SOUTHEAST WISCONSIN

CITY           SKY/WX    TMP DP  RH WIND       PRES   REMARKS
MILWAUKEE      CLOUDY    39  35  86 NW8       29.76R WCI  33
WAUKESHA       FOG       34  34 100 NW7       29.77S VSB 3/4 WCI  28
MILWAUKEE/TIMM CLOUDY    36  34  93 NW6       29.77R FOG     WCI  31
RACINE         CLOUDY    38  35  89 NW7       29.77R WCI  33
KENOSHA        CLOUDY    38  35  89 NW7       29.76R FOG     WCI  33
FOND DU LAC    FOG       36  33  89 NW7       29.77R VSB 3/4 WCI  30
SHEBOYGAN      CLOUDY    37  36  96 NW5       29.77R FOG     WCI  33
WEST BEND      FOG       36  36 100 NW7       29.77R VSB 1/2 WCI  30
JUNEAU         FOG       34  34 100 NW7       29.78S VSB 1/2 WCI  28
$$

LSZ147-162-231600-
LAKE SUPERIOR

STATION/POSITION TIME  TEMP    WIND        PRES    WAVE
                       AIR SEA DIR/SP/G            HT/PER
                 (UTC) (F)     (DEG/KT/KT) (MB)    (FT/S)
DEVILS ISLAND    1500   34     220/  6/  6 1008.7R
PORT WING        1430   36     250/  6/  9 1008.1S
SAXON HARBOR     1440   33     170/  2/  3 1008.1R
$$

LMZ867-665-643>646-231600-
LAKE MICHIGAN

STATION/POSITION TIME  TEMP    WIND        PRES    WAVE
                       AIR SEA DIR/SP/G            HT/PER
                 (UTC) (F)     (DEG/KT/KT) (MB)    (FT/S)
NORTHPORT PIER   1440   34     310/  4/  5 1007.8R
SISTER BAY       1420   33        CALM       N/A
KEWAUNEE LAKESHO 1442   36     340/  2/  5 1007.4R
SHEBOYGAN LAKESH 1500   37     330/  6/  7 1008.3R
PORT WASHINGTON  1440   37     310/  4/  6 1009.1R
KENOSHA   LAKESH 1500   39     330/  7/ 10 1008.1
$$

TC  - TEMPERATURE IN CELSIUS
VSB - VISIBILITY IN STATUTE MILES
WCI - WIND CHILL INDEX
HX  - HEAT INDEX





USA.gov is the U.S. government's official web portal to all federal, state and local government web resources and services.